Corpus Christi, TX

3:15 AM CST on February 07, 2016 (GMT -0600)
Corpus Christi International

Weather History for KCRP - December, 2012

Change the Weather History Date:

Tuesday, December 18, 2012

  Actual Average Record
Temperature  
Mean Temperature 66 °F 58 °F  
Max Temperature 87 °F 68 °F 87 °F (2012)
Min Temperature 44 °F 48 °F 29 °F (1979)
Degree Days  
Heating Degree Days 0 9  
Month to date heating degree days 42 132  
Since 1 July heating degree days 81 233  
Cooling Degree Days 1 2  
Month to date cooling degree days 116 36  
Year to date cooling degree days 4487 3511  
Growing Degree Days 16 (Base 50)    
Moisture  
Dew Point 55 °F    
Average Humidity 62    
Maximum Humidity 87    
Minimum Humidity 37    
Precipitation  
Precipitation 0.00 in 0.06 in 3.79 in (1993)
Month to date precipitation 0.02 1.00  
Year to date precipitation 18.81 30.93  
Snow  
Snow 0.00 in - - ()
Month to date snowfall 0.0  
Since 1 July snowfall 0.0  
Snow Depth 0.00 in    
Sea Level Pressure  
Sea Level Pressure 29.88 in    
Wind  
Wind Speed 14 mph (South)    
Max Wind Speed 25 mph    
Max Gust Speed 31 mph    
Visibility 10 miles    
Events      
T = Trace of Precipitation, MM = Missing Value Source: NWS Daily Summary

Daily Weather History Graph

Daily Weather History Graph

Search for Another Location

Airport or City:

Trip Planner

Search our weather history database for the weather conditions in past years. The results will help you decide how hot, cold, wet, or windy it might be!

Date:

Astronomy

Dec. 18, 2012 Rise Set
Actual Time 7:15 AM CST 5:38 PM CST
Civil Twilight 6:49 AM CST 6:04 PM CST
Nautical Twilight 6:20 AM CST 6:33 PM CST
Astronomical Twilight 5:51 AM CST 7:02 PM CST
Moon 11:23 AM CST (12/18) 11:35 PM CST (12/18)
Length of Visible Light 11h 14m
Length of Day
10h 23m
Waxing Crescent, 35% of the Moon is Illuminated
Dec 18
Waxing Crescent
Dec 19
First Quarter
Dec 28
Full
Jan 4
Last Quarter
Jan 11
New

Hourly Weather History & Observations

Time (CST) Temp. Windchill Dew Point Humidity Pressure Visibility Wind Dir Wind Speed Gust Speed Precip Events Conditions
12:51 AM 52.0 °F - 42.1 °F 69% 29.95 in 10.0 mi SSW 3.5 mph - N/A   Clear
1:51 AM 48.9 °F - 42.1 °F 77% 29.94 in 10.0 mi Calm Calm - N/A   Clear
2:51 AM 48.0 °F - 42.1 °F 80% 29.94 in 10.0 mi SW 4.6 mph - N/A   Clear
3:51 AM 48.0 °F - 41.0 °F 77% 29.94 in 10.0 mi SW 5.8 mph - N/A   Clear
4:51 AM 46.0 °F 43.9 °F 39.9 °F 79% 29.92 in 10.0 mi South 4.6 mph - N/A   Clear
5:51 AM 45.0 °F 42.6 °F 36.0 °F 71% 29.92 in 10.0 mi South 4.6 mph - N/A   Clear
6:51 AM 46.9 °F - 41.0 °F 80% 29.94 in 10.0 mi SW 4.6 mph - N/A   Clear
7:51 AM 46.9 °F - 39.0 °F 74% 29.96 in 10.0 mi South 4.6 mph - N/A   Clear
8:51 AM 60.1 °F - 50.0 °F 69% 29.96 in 10.0 mi South 5.8 mph - N/A   Clear
9:51 AM 73.9 °F - 57.0 °F 55% 29.96 in 10.0 mi South 18.4 mph 23.0 mph N/A   Clear
10:51 AM 80.1 °F - 53.1 °F 39% 29.94 in 10.0 mi South 21.9 mph 27.6 mph N/A   Clear
11:51 AM 82.4 °F - 55.4 °F 39% 29.92 in 10.0 mi South 18.4 mph - N/A   Clear
12:51 PM 84.9 °F - 55.9 °F 37% 29.88 in 10.0 mi South 19.6 mph 26.5 mph N/A   Clear
1:51 PM 86.0 °F - 57.0 °F 37% 29.85 in 10.0 mi South 17.3 mph - N/A   Clear
2:51 PM 84.9 °F - 60.1 °F 43% 29.83 in 10.0 mi SSE 21.9 mph - N/A   Clear
3:51 PM 82.0 °F - 62.1 °F 51% 29.82 in 10.0 mi SSE 23.0 mph - N/A   Clear
4:51 PM 78.1 °F - 62.1 °F 58% 29.82 in 10.0 mi SSE 23.0 mph - N/A   Clear
5:51 PM 75.0 °F - 62.1 °F 64% 29.82 in 10.0 mi SSE 21.9 mph - N/A   Clear
6:51 PM 73.0 °F - 64.0 °F 73% 29.83 in 10.0 mi SSE 18.4 mph - N/A   Clear
7:51 PM 73.0 °F - 66.0 °F 79% 29.83 in 10.0 mi SSE 19.6 mph - N/A   Clear
8:42 PM 73.4 °F - 66.2 °F 78% 29.84 in 10.0 mi SSE 15.0 mph - N/A   Mostly Cloudy
8:51 PM 73.0 °F - 66.9 °F 81% 29.84 in 10.0 mi SSE 16.1 mph - N/A   Overcast
9:51 PM 75.0 °F - 69.1 °F 82% 29.84 in 10.0 mi SSE 20.7 mph - N/A   Overcast
10:51 PM 73.9 °F - 69.1 °F 85% 29.83 in 10.0 mi SSE 20.7 mph - N/A   Overcast
11:28 PM 73.4 °F - 69.8 °F 88% 29.83 in 10.0 mi SSE 21.9 mph 27.6 mph N/A   Mostly Cloudy
11:51 PM 73.9 °F - 69.1 °F 85% 29.83 in 10.0 mi SSE 18.4 mph - N/A   Scattered Clouds